Location: Unspecified
(0.0000°N, 0.0000°E)
Time: 18:45:31
(UTC+00:00)

Explorer 27 - Pass Details

Date: 23 May 2026
Orbit: 932 x 1295 km, 41.2° (Epoch: 10 June)

Event Time Altitude Azimuth Distance (km) Brightness Sun altitude
Exits shadow 03:49:53 33° 335° (NNW) 1,505 8.9 -29.5°
Maximum altitude 03:52:40 64° 44° (NE) 1,024 8.2 -28.9°
Drops below altitude 10° 03:58:51 10° 124° (SE) 2,654 10.6 -27.4°
Sets 04:01:31 0° 127° (SE) 3,626 11.4 -26.8°
